{"data":{"norad_id":67613,"epoch":"2026-05-25T02:31:39.953856Z","epoch_age_seconds":76607,"freshness":"FRESH","line1":"1 67613U 26018AA  26145.10532354  .00031510  00000+0  97348-3 0  9994","line2":"2 67613  97.2848 210.2124 0000431 263.9565  96.1629 15.33471760 19043","mean_motion":15.3347176,"eccentricity":4.31e-5,"inclination_deg":97.2848,"raan_deg":210.2124,"arg_perigee_deg":263.9565,"mean_anomaly_deg":96.1629,"bstar":0.00097348,"rev_number":1904,"period_min":93.90456593736,"perigee_km":465.16859751923,"apogee_km":465.75851588722,"semimajor_km":6843.6005567032,"source":"CELESTRAK","updated_at":"2026-05-25T13:38:21.648538Z"}}